[[{"header":{"parameterUnit":"m.s-1","parameterCategory":1,"la1":30.2991,"la2":30.254,"lo1":-89.0895,"lo2":-89.0444,"dy":0.0017,"dx":0.0017,"nx":28,"ny":28,"refTime":"2024-05-13T09:00:00:Z","depth":0,"parameterNumber":2,"parameterNumberName":"U-component_of_WINDS"},"data":[0,0,0,0,0,0,0,0,0,0,0,0,0,0,0,0,0,0,0,0,0,0,0,0,0,0,0,0,0,0,0,0,0,0,0,0,0,0,0,0,0,0,0,0,0,0,0,0,0,0,0,0,0,0,0,0,0,0,2.4696,2.4699,0,2.492,2.4922,2.4925,2.4979,2.4977,2.4976,2.4974,2.521,2.5217,2.5225,0,0,0,0,0,0,0,0,0,0,0,0,0,2.4325,2.4331,2.4696,2.4699,2.4702,2.4919,2.4922,2.4925,2.4979,2.4977,2.4975,2.4973,2.5207,2.5216,2.5226,0,0,0,0,0,0,0,0,0,0,0,0,0,2.4511,2.4333,2.4696,2.4755,2.4762,2.4919,2.4922,2.4926,2.4979,2.4977,2.4975,2.4973,2.5204,2.5216,2.5227,2.5343,0,0,2.5262,2.5267,0,0,0,0,0,0,0,0,2.45,2.4524,2.4743,2.4751,2.4759,2.4919,2.4878,2.5066,2.498,2.4897,2.4974,2.4972,2.5115,2.5134,2.5181,2.5354,2.5364,2.5263,2.527,2.5275,2.5278,0,0,0,0,0,0,0,2.4487,2.4515,2.4785,2.4746,2.4756,2.4773,2.4796,2.4914,2.5016,2.4904,2.4908,2.4934,2.5119,2.517,2.5187,2.5368,2.5263,2.5273,2.528,2.5285,2.5651,2.5653,0,0,0,0,0,0,2.4463,2.4504,2.4778,2.4792,2.4621,2.4781,2.4808,2.487,2.5015,2.5035,2.4935,2.4935,2.5151,2.5174,2.5196,2.5343,2.5275,2.5286,2.5292,2.5648,2.5651,2.5654,0,0,0,0,0,0,2.4455,2.4487,2.4769,2.4649,2.4686,2.479,2.4859,2.4876,2.4926,2.5039,2.5058,2.4967,2.515,2.5179,2.5306,2.5352,2.5291,2.5301,2.5645,2.5649,2.5653,2.5637,0,0,0,0,0,0,2.4444,2.4484,2.4527,2.465,2.4692,2.4873,2.4862,2.4882,2.4945,2.4947,2.5074,2.5093,2.5151,2.5289,2.5318,2.5366,2.531,2.5641,2.5647,2.5652,2.5634,2.564,2.5645,0,0,0,0,0,2.443,2.4514,2.4528,2.4561,2.4748,2.4875,2.49,2.4963,2.4948,2.4994,2.5067,2.5089,2.5342,2.5301,2.5334,2.5387,2.5639,2.5645,2.5651,2.5631,2.5639,2.5645,0,0,0,0,0,0,2.4396,2.4531,2.4549,2.4674,2.4762,2.4884,2.4943,2.4969,2.5065,2.5063,2.5139,2.5168,2.529,2.5352,2.5304,2.5509,2.549,2.5504,2.5464,2.5472,2.5478,2.5461,2.532,0,0,0,0,0,2.4402,2.4492,2.4607,2.4706,2.475,2.4839,2.4897,2.4937,2.5033,2.5072,2.5154,2.5248,2.5349,2.5414,2.5513,2.5643,2.5673,2.5696,2.5702,2.5706,2.5717,2.5793,2.5805,2.5675,2.5675,2.5675,0,0,2.4417,2.4503,2.4555,2.4702,2.4775,2.4869,2.487,2.4969,2.504,2.5087,2.5212,2.5276,2.5386,2.5516,2.5577,2.5571,2.576,2.5714,2.5717,2.5726,2.5801,2.5813,2.5824,2.568,2.5679,2.5678,0,0,2.4493,2.4565,2.4657,2.4731,2.4841,2.49,2.4922,2.5041,2.5085,2.521,2.5248,2.5336,2.5508,2.5585,2.5647,2.5755,2.578,2.5786,2.5816,2.5889,2.5899,2.5909,2.5949,2.5962,2.5796,2.5796,2.5796,0,2.4498,2.4638,2.4702,2.4799,2.4864,2.4909,2.5005,2.5074,2.5212,2.5257,2.5248,2.5466,2.5544,2.5693,2.5719,2.5767,2.5797,2.5771,2.5892,2.5903,2.5912,2.5952,2.5966,2.5796,2.5796,2.5796,2.5796,0,2.4641,2.4738,2.48,2.493,2.5002,2.5098,2.5178,2.5244,2.5279,2.534,2.547,2.5565,2.5685,2.5723,2.5759,2.5879,2.5872,2.5876,2.586,2.5924,2.5962,2.5978,2.5796,2.5796,2.5796,2.5796,0,0,2.47,2.4864,2.4886,2.4947,2.5073,2.5151,2.5251,2.5366,2.5422,2.5517,2.5604,2.5749,2.5755,2.5825,2.5871,2.5935,2.6017,2.5933,2.5937,2.5946,2.6158,2.6154,2.617,2.6034,2.6037,2.604,2.6149,0,2.4792,2.4968,2.5029,2.5176,2.5269,2.5314,2.5402,2.549,2.5551,2.564,2.5708,2.581,2.5809,2.5852,2.5918,2.5993,2.6061,2.5986,2.6119,2.6123,2.609,2.619,2.6186,2.6284,2.6164,2.6167,2.6169,0,2.4922,2.5017,2.5172,2.5289,2.533,2.5407,2.5519,2.5603,2.5706,2.5746,2.5825,2.5867,2.5976,2.5952,2.6106,2.6054,2.6112,2.6158,2.6164,2.6179,2.615,2.6209,2.6317,2.6332,2.6193,2.6191,2.6189,0,2.4951,2.5118,2.5233,2.5284,2.5422,2.5476,2.5536,2.5637,2.5703,2.5802,2.5847,2.5958,2.6019,2.6106,2.6178,2.6153,2.6326,2.6307,2.6364,2.6363,2.6399,2.6396,2.6518,2.6435,2.6435,2.6434,2.6434,0,2.5048,2.5142,2.5248,2.5319,2.5427,2.5498,2.5603,2.5668,2.5757,2.5844,2.5891,2.5972,2.6061,2.6155,2.6212,2.6332,2.6359,2.6396,2.6411,2.6393,2.6388,2.6432,2.6428,2.6438,2.6438,2.6437,2.6436,0,2.5098,2.5173,2.5302,2.5422,2.5455,2.5529,2.5635,2.5707,2.577,2.5879,2.5909,2.6008,2.6121,2.6201,2.6347,2.6386,2.6515,2.6529,2.648,2.6487,2.654,2.6534,2.6696,2.6722,2.6619,2.662,2.6621,0,2.5155,2.5228,2.5357,2.5417,2.5477,2.5574,2.5642,2.5716,2.5785,2.5909,2.5967,2.6083,2.6179,2.6358,2.6445,2.6558,2.6575,2.6624,2.6592,2.6573,2.6578,2.6573,2.6582,2.6629,2.6629,2.663,2.6631,0,2.5249,2.5283,2.5377,2.5485,2.5564,2.5653,2.5744,2.5791,2.5882,2.5958,2.6072,2.6147,2.6296,2.6411,2.6532,2.6599,2.6631,2.664,2.6659,2.6642,2.6611,2.663,2.6494,2.6636,2.6635,2.6635,2.6635,2.6634,2.5306,2.5374,2.5475,2.5579,2.5655,2.5738,2.5812,2.5884,2.598,2.6105,2.6144,2.6264,2.6369,2.6535,2.6603,2.67,2.6697,2.6725,2.6732,2.6738,2.6738,2.6595,2.6722,2.6722,2.6722,2.6722,2.6722,0,2.5403,2.5471,2.5566,2.569,2.5773,2.5794,2.5895,2.5964,2.6068,2.6161,2.6255,2.6389,2.6502,2.6598,2.6716,2.6775,2.6793,2.6804,2.68,2.6816,2.6733,2.6705,2.6787,2.6787,2.6787,2.6787,2.6787,2.6787,2.5464,2.558,2.5626,2.5782,2.585,2.5966,2.6022,2.6101,2.6176,2.6322,2.6415,2.6476,2.6573,2.6698,2.6803,2.6829,2.6871,2.6878,2.6908,2.6829,2.6821,2.6814,2.6788,2.6886,2.6887,2.6983,2.6984,2.6984]},{"header":{"parameterUnit":"m.s-1","parameterCategory":1,"la1":30.2991,"la2":30.254,"lo1":-89.0895,"lo2":-89.0444,"dy":0.0017,"dx":0.0017,"nx":28,"ny":28,"refTime":"2024-05-13T09:00:00:Z","depth":0,"parameterNumber":3,"parameterNumberName":"V-component_of_WINDS"},"data":[0,0,0,0,0,0,0,0,0,0,0,0,0,0,0,0,0,0,0,0,0,0,0,0,0,0,0,0,0,0,0,0,0,0,0,0,0,0,0,0,0,0,0,0,0,0,0,0,0,0,0,0,0,0,0,0,0,0,-0.597,-0.5967,0,-0.5657,-0.5654,-0.565,-0.5536,-0.5537,-0.5538,-0.5539,-0.5207,-0.5197,-0.5187,0,0,0,0,0,0,0,0,0,0,0,0,0,-0.6458,-0.645,-0.597,-0.5966,-0.5962,-0.5658,-0.5654,-0.5649,-0.5536,-0.5537,-0.5539,-0.554,-0.521,-0.5198,-0.5186,0,0,0,0,0,0,0,0,0,0,0,0,0,-0.6206,-0.6447,-0.5971,-0.587,-0.5857,-0.5659,-0.5654,-0.5648,-0.5536,-0.5537,-0.5539,-0.5541,-0.5214,-0.5199,-0.5185,-0.506,0,0,-0.5139,-0.5133,0,0,0,0,0,0,0,0,-0.622,-0.6188,-0.5888,-0.5876,-0.5862,-0.5638,-0.5703,-0.5451,-0.5535,-0.5657,-0.5539,-0.5541,-0.5348,-0.5322,-0.5259,-0.5045,-0.503,-0.5138,-0.5129,-0.5123,-0.5118,0,0,0,0,0,0,0,-0.6238,-0.6201,-0.5846,-0.5884,-0.5868,-0.5836,-0.5802,-0.5655,-0.5497,-0.5647,-0.5638,-0.5603,-0.5341,-0.5274,-0.5251,-0.5026,-0.5138,-0.5125,-0.5116,-0.511,-0.4693,-0.4691,0,0,0,0,0,0,-0.6274,-0.6216,-0.5856,-0.5837,-0.6049,-0.5826,-0.5788,-0.5708,-0.5498,-0.5468,-0.5602,-0.5599,-0.5299,-0.5268,-0.5239,-0.508,-0.5123,-0.5109,-0.51,-0.4696,-0.4693,-0.4691,0,0,0,0,0,0,-0.6285,-0.6243,-0.5869,-0.6024,-0.5974,-0.5816,-0.5727,-0.5701,-0.5634,-0.5465,-0.5435,-0.5564,-0.5299,-0.5259,-0.5107,-0.5067,-0.5102,-0.5089,-0.4698,-0.4695,-0.4692,-0.4762,0,0,0,0,0,0,-0.6299,-0.6248,-0.6201,-0.6024,-0.5966,-0.5745,-0.5724,-0.5694,-0.561,-0.5603,-0.542,-0.5392,-0.5297,-0.5129,-0.5092,-0.5047,-0.5077,-0.4701,-0.4697,-0.4693,-0.4763,-0.4762,-0.4761,0,0,0,0,0,-0.6317,-0.623,-0.62,-0.6157,-0.5906,-0.5743,-0.571,-0.5606,-0.5608,-0.5558,-0.5449,-0.5397,-0.5078,-0.5115,-0.5071,-0.5022,-0.4703,-0.4698,-0.4693,-0.4763,-0.4762,-0.4761,0,0,0,0,0,0,-0.6402,-0.6205,-0.6169,-0.6023,-0.5902,-0.5725,-0.5659,-0.5608,-0.548,-0.5479,-0.5352,-0.5311,-0.5169,-0.5079,-0.5124,-0.4891,-0.4887,-0.4873,-0.4955,-0.4952,-0.4951,-0.4976,-0.5065,0,0,0,0,0,-0.6405,-0.6294,-0.6126,-0.6013,-0.5955,-0.5818,-0.5743,-0.5675,-0.5542,-0.5488,-0.5368,-0.5238,-0.5108,-0.5025,-0.4896,-0.4749,-0.4707,-0.4693,-0.4693,-0.4693,-0.4682,-0.4598,-0.459,-0.4674,-0.4675,-0.4675,0,0,-0.6408,-0.6286,-0.6223,-0.6027,-0.5925,-0.581,-0.5775,-0.5654,-0.5566,-0.5468,-0.5318,-0.5226,-0.5072,-0.4922,-0.485,-0.4843,-0.465,-0.4687,-0.4688,-0.4677,-0.4593,-0.4585,-0.4578,-0.4671,-0.4672,-0.4672,0,0,-0.6354,-0.6252,-0.6148,-0.6047,-0.5895,-0.5804,-0.578,-0.5611,-0.5547,-0.5395,-0.532,-0.5212,-0.4991,-0.4885,-0.4802,-0.4711,-0.4658,-0.4672,-0.4667,-0.4586,-0.458,-0.4573,-0.4541,-0.4531,-0.4662,-0.4662,-0.4662,0,-0.6376,-0.6203,-0.6099,-0.5983,-0.5899,-0.581,-0.5702,-0.5608,-0.5419,-0.5361,-0.5358,-0.508,-0.497,-0.4795,-0.4773,-0.4709,-0.4675,-0.4692,-0.459,-0.4582,-0.4575,-0.4542,-0.453,-0.4664,-0.4664,-0.4664,-0.4664,0,-0.6237,-0.6118,-0.6052,-0.5878,-0.5785,-0.5674,-0.555,-0.5468,-0.5408,-0.5318,-0.5164,-0.5029,-0.4872,-0.4825,-0.4762,-0.4641,-0.4642,-0.4616,-0.4609,-0.4571,-0.4539,-0.4525,-0.4668,-0.4667,-0.4667,-0.4666,0,0,-0.6228,-0.6,-0.5977,-0.5898,-0.5724,-0.5628,-0.5511,-0.5362,-0.5295,-0.5167,-0.5065,-0.4882,-0.4858,-0.4764,-0.4688,-0.4618,-0.4555,-0.46,-0.4594,-0.4597,-0.4412,-0.4434,-0.4421,-0.452,-0.4517,-0.4514,-0.4426,0,-0.6152,-0.5945,-0.5849,-0.5683,-0.5571,-0.5486,-0.5384,-0.5265,-0.5177,-0.5067,-0.4967,-0.484,-0.4818,-0.4761,-0.4687,-0.4579,-0.4516,-0.4584,-0.4421,-0.4416,-0.4463,-0.4404,-0.4425,-0.4348,-0.4412,-0.441,-0.4408,0,-0.6035,-0.5914,-0.5739,-0.558,-0.5529,-0.544,-0.5296,-0.5193,-0.5055,-0.4996,-0.4893,-0.4821,-0.4692,-0.4696,-0.4516,-0.4564,-0.4492,-0.4428,-0.4423,-0.4403,-0.441,-0.4383,-0.4321,-0.431,-0.4387,-0.4389,-0.439,0,-0.6048,-0.5839,-0.5708,-0.5642,-0.5453,-0.5392,-0.531,-0.5174,-0.5091,-0.4964,-0.4908,-0.4766,-0.4688,-0.4579,-0.4469,-0.4482,-0.43,-0.4294,-0.4245,-0.4248,-0.421,-0.4214,-0.4136,-0.4164,-0.4164,-0.4165,-0.4165,0,-0.5973,-0.5869,-0.5711,-0.563,-0.5511,-0.54,-0.5283,-0.5194,-0.5074,-0.4972,-0.4887,-0.4793,-0.4655,-0.4541,-0.4454,-0.4319,-0.4284,-0.4231,-0.4209,-0.4238,-0.4246,-0.4189,-0.4191,-0.4161,-0.4162,-0.4163,-0.4163,0,-0.5966,-0.5856,-0.5708,-0.5542,-0.5498,-0.5417,-0.5273,-0.519,-0.51,-0.4972,-0.4935,-0.4791,-0.4654,-0.4535,-0.4352,-0.4293,-0.4154,-0.4127,-0.4203,-0.4191,-0.4149,-0.4155,-0.4032,-0.401,-0.4054,-0.4053,-0.4053,0,-0.5926,-0.5845,-0.5672,-0.56,-0.5521,-0.5405,-0.5321,-0.5208,-0.5123,-0.4961,-0.4897,-0.4755,-0.4635,-0.4419,-0.4296,-0.4156,-0.4125,-0.4092,-0.4103,-0.4136,-0.4125,-0.4131,-0.4122,-0.4092,-0.4092,-0.4092,-0.4092,0,-0.5867,-0.5817,-0.5702,-0.5568,-0.5472,-0.5359,-0.5244,-0.5189,-0.5053,-0.4962,-0.4824,-0.4731,-0.4548,-0.4407,-0.4254,-0.4164,-0.4105,-0.409,-0.4071,-0.41,-0.4148,-0.4122,-0.4203,-0.4093,-0.4092,-0.4092,-0.4092,-0.4092,-0.5842,-0.5766,-0.5634,-0.5508,-0.5411,-0.5306,-0.522,-0.5121,-0.5005,-0.4849,-0.4788,-0.4647,-0.451,-0.4299,-0.421,-0.4095,-0.4085,-0.4058,-0.4051,-0.4047,-0.4052,-0.4167,-0.4067,-0.4067,-0.4066,-0.4066,-0.4066,0,-0.5779,-0.569,-0.5576,-0.542,-0.5321,-0.5278,-0.5149,-0.5068,-0.4946,-0.4825,-0.4711,-0.4551,-0.4415,-0.4283,-0.4138,-0.4072,-0.4041,-0.4038,-0.4041,-0.4022,-0.4069,-0.41,-0.4066,-0.4066,-0.4066,-0.4066,-0.4066,-0.4066,-0.5735,-0.5605,-0.554,-0.536,-0.5271,-0.5135,-0.5065,-0.4967,-0.4871,-0.4698,-0.4586,-0.4502,-0.4376,-0.4223,-0.4095,-0.4059,-0.4009,-0.4014,-0.3971,-0.4017,-0.4018,-0.402,-0.4048,-0.4004,-0.4004,-0.3933,-0.3933,-0.3932]}]]